Location: Unspecified
(44.0704°N, 88.6889°W)
Time: 00:24:21
(UTC+02:00)

Okean 3 - Visible Passes

Search period start: 26 May 2018 00:00
Search period end: 05 June 2018 00:00
Orbit: 577 x 602 km, 82.5° (Epoch: 25 May)

Date Brightness Start Highest point End Pass type
(mag) Time Alt. Az. Time Alt. Az. Time Alt. Az.
26 May 6.0 04:31:47 10° SW 04:35:15 23° WNW 04:38:43 10° NNW visible
27 May 6.4 04:40:44 10° WSW 04:43:30 17° WNW 04:46:15 10° NNW visible
28 May 6.8 04:50:17 10° W 04:51:46 12° WNW 04:53:16 10° NW visible
